Location: Dillon
(41.1766°N, 107.0923°W)
Time: 04:49:08
(UTC+00:00)

SO-50 - Pass Details

Date: 04 July 2022
Orbit: 584 x 698 km, 64.6° (Epoch: 18 August)

Event Time Altitude Azimuth Distance (km) Brightness Sun altitude
Exits shadow 08:02:08 13° 279° (W) 1,907 ? -24.9°
Maximum altitude 08:04:52 19° 319° (NW) 1,571 ? -24.8°
Drops below altitude 10° 08:08:21 10° 5° (N) 2,130 ? -24.7°
Sets 08:11:21 0° 23° (NNE) 3,065 ? -24.5°
